| time (UTC) | temp C | wind direction | speed KPH | gust KPH | rain 1hr cm | rain 24hr cm | rain mn cm | humidity % | barometer mb |
| 20260510225820 | 8 | 318 | 6.4 | 16.1 | 0.00 | 0.00 | 0.00 | 47 | 1018.9 |
| 20260510225318 | 8 | 12 | 1.6 | 14.5 | 0.00 | 0.00 | 0.00 | 51 | 1018.6 |
| 20260510224757 | 8 | 292 | 8.0 | 14.5 | 0.00 | 0.00 | 0.00 | 51 | 1018.9 |
| 20260510224250 | 8 | 319 | 8.0 | 14.5 | 0.00 | 0.00 | 0.00 | 51 | 1018.9 |
| 20260510223743 | 10 | 321 | 8.0 | 16.1 | 0.00 | 0.00 | 0.00 | 51 | 1018.6 |
| 20260510223231 | 9 | 325 | 8.0 | 16.1 | 0.00 | 0.00 | 0.00 | 51 | 1018.6 |
| 20260510222947 | 10 | 327 | 3.2 | 14.5 | 0.00 | 0.00 | 0.00 | 51 | 1018.6 |
| 20260510222225 | 10 | 353 | 9.7 | 14.5 | 0.00 | 0.00 | 0.00 | 51 | 1018.9 |
| 20260510221703 | 8 | 354 | 4.8 | 17.7 | 0.00 | 0.00 | 0.00 | 54 | 1018.6 |
| 20260510221137 | 8 | 345 | 4.8 | 17.7 | 0.00 | 0.00 | 0.00 | 54 | 1018.6 |
| 20260510220626 | 8 | 330 | 6.4 | 16.1 | 0.00 | 0.00 | 0.00 | 54 | 1018.6 |
| 20260510220056 | 8 | 323 | 3.2 | 17.7 | 0.00 | 0.00 | 0.00 | 55 | 1018.6 |
| 20260510215525 | 8 | 346 | 8.0 | 16.1 | 0.00 | 0.00 | 0.00 | 55 | 1018.6 |
| 20260510215022 | 8 | 300 | 8.0 | 24.1 | 0.00 | 0.00 | 0.00 | 54 | 1018.2 |
| 20260510214507 | 8 | 313 | 8.0 | 24.1 | 0.00 | 0.00 | 0.00 | 53 | 1018.6 |
| 20260510214001 | 8 | 270 | 6.4 | 24.1 | 0.00 | 0.00 | 0.00 | 55 | 1018.6 |
| 20260510213443 | 8 | 339 | 17.7 | 24.1 | 0.00 | 0.00 | 0.00 | 53 | 1018.6 |
| 20260510212936 | 8 | 315 | 9.7 | 16.1 | 0.00 | 0.00 | 0.00 | 53 | 1018.2 |
| 20260510212430 | 8 | 295 | 8.0 | 16.1 | 0.00 | 0.00 | 0.00 | 52 | 1018.2 |
| 20260510211924 | 9 | 265 | 3.2 | 14.5 | 0.00 | 0.00 | 0.00 | 51 | 1018.2 |
| 20260510211355 | 9 | 340 | 6.4 | 20.9 | 0.00 | 0.00 | 0.00 | 52 | 1018.2 |
| 20260510210830 | 8 | 322 | 6.4 | 20.9 | 0.00 | 0.00 | 0.00 | 53 | 1018.2 |
| 20260510210329 | 9 | 262 | 6.4 | 20.9 | 0.00 | 0.00 | 0.00 | 53 | 1017.9 |
| 20260510205823 | 8 | 262 | 6.4 | 20.9 | 0.00 | 0.00 | 0.00 | 52 | 1017.9 |
| 20260510205313 | 9 | 12 | 8.0 | 24.1 | 0.00 | 0.00 | 0.00 | 50 | 1017.9 |
| 20260510205031 | 8 | 340 | 8.0 | 24.1 | 0.00 | 0.00 | 0.00 | 52 | 1018.2 |
| 20260510204516 | 9 | 340 | 4.8 | 24.1 | 0.00 | 0.00 | 0.00 | 54 | 1017.9 |
| 20260510203723 | 9 | 341 | 6.4 | 22.5 | 0.00 | 0.00 | 0.00 | 55 | 1018.2 |
| 20260510203204 | 10 | 343 | 9.7 | 22.5 | 0.00 | 0.00 | 0.00 | 56 | 1017.9 |
| 20260510202648 | 8 | 338 | 14.5 | 25.7 | 0.00 | 0.00 | 0.00 | 60 | 1018.2 |
| 20260510202130 | 8 | 307 | 8.0 | 25.7 | 0.00 | 0.00 | 0.00 | 62 | 1017.9 |
| 20260510201621 | 7 | 312 | 11.3 | 25.7 | 0.00 | 0.00 | 0.00 | 64 | 1017.9 |
| 20260510201119 | 8 | 329 | 11.3 | 22.5 | 0.00 | 0.00 | 0.00 | 64 | 1017.9 |
| 20260510200824 | 8 | 261 | 14.5 | 17.7 | 0.00 | 0.00 | 0.00 | 62 | 1018.2 |
| 20260510200050 | 8 | 249 | 8.0 | 22.5 | 0.00 | 0.00 | 0.00 | 63 | 1017.9 |
| 20260510195543 | 8 | 303 | 9.7 | 22.5 | 0.00 | 0.00 | 0.00 | 58 | 1017.9 |
| 20260510195030 | 8 | 346 | 8.0 | 20.9 | 0.00 | 0.00 | 0.00 | 59 | 1017.9 |
| 20260510194530 | 8 | 256 | 11.3 | 20.9 | 0.00 | 0.00 | 0.00 | 58 | 1017.5 |
| 20260510194247 | 9 | 237 | 6.4 | 25.7 | 0.00 | 0.00 | 0.00 | 58 | 1017.5 |
| 20260510193522 | 9 | 351 | 17.7 | 27.4 | 0.00 | 0.00 | 0.00 | 57 | 1017.5 |
| 20260510193010 | 9 | 256 | 16.1 | 30.6 | 0.00 | 0.00 | 0.00 | 58 | 1017.5 |
| 20260510192501 | 9 | 15 | 20.9 | 30.6 | 0.00 | 0.00 | 0.00 | 59 | 1017.5 |
| 20260510191950 | 8 | 298 | 8.0 | 25.7 | 0.00 | 0.00 | 0.00 | 59 | 1017.5 |
| 20260510191436 | 8 | 328 | 11.3 | 22.5 | 0.00 | 0.00 | 0.00 | 63 | 1017.5 |
| 20260510190930 | 8 | 265 | 8.0 | 25.7 | 0.00 | 0.00 | 0.00 | 64 | 1017.5 |
| 20260510190640 | 8 | 316 | 16.1 | 25.7 | 0.00 | 0.00 | 0.00 | 64 | 1017.2 |
| 20260510185914 | 8 | 333 | 11.3 | 24.1 | 0.00 | 0.00 | 0.00 | 64 | 1017.5 |
| 20260510185403 | 7 | 329 | 8.0 | 24.1 | 0.00 | 0.00 | 0.00 | 65 | 1017.2 |
| 20260510184831 | 8 | 294 | 8.0 | 25.7 | 0.00 | 0.00 | 0.00 | 65 | 1017.2 |
| 20260510184323 | 8 | 318 | 6.4 | 27.4 | 0.00 | 0.00 | 0.00 | 65 | 1017.2 |
| 20260510183816 | 9 | 337 | 20.9 | 27.4 | 0.00 | 0.00 | 0.00 | 60 | 1016.9 |
| 20260510183307 | 8 | 337 | 3.2 | 27.4 | 0.00 | 0.00 | 0.00 | 62 | 1016.9 |
| 20260510182801 | 8 | 323 | 17.7 | 27.4 | 0.00 | 0.00 | 0.00 | 60 | 1016.9 |
| 20260510182739 | 8 | 335 | 12.9 | 33.8 | 0.00 | 0.00 | 0.00 | 59 | 1016.5 |
| 20260510181757 | 8 | 4 | 9.7 | 33.8 | 0.00 | 0.00 | 0.00 | 60 | 1016.5 |
| 20260510181250 | 8 | 336 | 14.5 | 20.9 | 0.00 | 0.00 | 0.00 | 59 | 1016.5 |
| 20260510180743 | 8 | 304 | 14.5 | 27.4 | 0.00 | 0.00 | 0.00 | 58 | 1016.5 |
| 20260510180231 | 8 | 231 | 8.0 | 27.4 | 0.00 | 0.00 | 0.00 | 57 | 1016.1 |
| 20260510175731 | 8 | 208 | 4.8 | 24.1 | 0.00 | 0.00 | 0.00 | 54 | 1016.1 |
| 20260510175223 | 9 | 349 | 14.5 | 24.1 | 0.00 | 0.00 | 0.00 | 50 | 1016.1 |
| 20260510174703 | 9 | 264 | 14.5 | 20.9 | 0.00 | 0.00 | 0.00 | 49 | 1016.1 |
| 20260510174138 | 10 | 248 | 14.5 | 24.1 | 0.00 | 0.00 | 0.00 | 48 | 1015.8 |
| 20260510173623 | 10 | 214 | 9.7 | 29.0 | 0.00 | 0.00 | 0.00 | 45 | 1015.8 |
| 20260510173057 | 10 | 306 | 14.5 | 29.0 | 0.00 | 0.00 | 0.00 | 46 | 1015.8 |
| 20260510172523 | 10 | 318 | 16.1 | 25.7 | 0.00 | 0.00 | 0.00 | 47 | 1015.8 |
| 20260510171955 | 10 | 16 | 9.7 | 25.7 | 0.00 | 0.00 | 0.00 | 47 | 1015.4 |
| 20260510171455 | 10 | 338 | 14.5 | 30.6 | 0.00 | 0.00 | 0.00 | 48 | 1015.8 |
| 20260510170926 | 10 | 320 | 9.7 | 30.6 | 0.00 | 0.00 | 0.00 | 48 | 1015.8 |
| 20260510170424 | 10 | 355 | 6.4 | 25.7 | 0.00 | 0.00 | 0.00 | 51 | 1015.8 |
| 20260510165904 | 10 | 340 | 16.1 | 25.7 | 0.00 | 0.00 | 0.00 | 49 | 1015.8 |
| 20260510165346 | 10 | 3 | 8.0 | 25.7 | 0.00 | 0.00 | 0.00 | 48 | 1015.4 |
| 20260510164814 | 9 | 244 | 6.4 | 25.7 | 0.00 | 0.00 | 0.00 | 51 | 1015.8 |
| 20260510164302 | 10 | 301 | 3.2 | 20.9 | 0.00 | 0.00 | 0.00 | 50 | 1015.8 |
| 20260510164023 | 9 | 311 | 11.3 | 27.4 | 0.00 | 0.00 | 0.00 | 52 | 1015.8 |
| 20260510163237 | 9 | 319 | 9.7 | 27.4 | 0.00 | 0.00 | 0.00 | 50 | 1015.8 |
| 20260510162730 | 8 | 347 | 12.9 | 25.7 | 0.00 | 0.00 | 0.00 | 52 | 1015.4 |
| 20260510162223 | 8 | 319 | 4.8 | 20.9 | 0.00 | 0.00 | 0.00 | 55 | 1015.8 |
| 20260510161653 | 9 | 279 | 14.5 | 16.1 | 0.00 | 0.00 | 0.00 | 54 | 1015.8 |
| 20260510161129 | 8 | 3 | 4.8 | 16.1 | 0.00 | 0.00 | 0.00 | 55 | 1015.8 |
| 20260510160630 | 9 | 158 | 6.4 | 14.5 | 0.00 | 0.00 | 0.00 | 53 | 1015.4 |
| 20260510160123 | 8 | 316 | 8.0 | 14.5 | 0.00 | 0.00 | 0.00 | 54 | 1015.4 |
| 20260510155616 | 9 | 302 | 6.4 | 22.5 | 0.00 | 0.00 | 0.00 | 55 | 1015.8 |
| 20260510155107 | 9 | 343 | 12.9 | 22.5 | 0.00 | 0.00 | 0.00 | 54 | 1015.4 |
| 20260510154600 | 8 | 1 | 11.3 | 16.1 | 0.00 | 0.00 | 0.00 | 56 | 1015.4 |
| 20260510154055 | 8 | 304 | 11.3 | 22.5 | 0.00 | 0.00 | 0.00 | 56 | 1015.4 |
| 20260510153557 | 8 | 338 | 4.8 | 17.7 | 0.00 | 0.00 | 0.00 | 58 | 1015.4 |
| 20260510153028 | 8 | 262 | 3.2 | 17.7 | 0.00 | 0.00 | 0.00 | 57 | 1015.4 |
| 20260510152527 | 8 | 327 | 4.8 | 17.7 | 0.00 | 0.00 | 0.00 | 57 | 1015.1 |
| 20260510152010 | 8 | 311 | 11.3 | 14.5 | 0.00 | 0.00 | 0.00 | 58 | 1015.1 |
| 20260510151502 | 9 | 322 | 9.7 | 14.5 | 0.00 | 0.00 | 0.00 | 55 | 1015.1 |
| 20260510150930 | 9 | 341 | 9.7 | 22.5 | 0.00 | 0.00 | 0.00 | 54 | 1015.1 |
| 20260510150422 | 8 | 311 | 9.7 | 22.5 | 0.00 | 0.00 | 0.00 | 54 | 1015.1 |
| 20260510145901 | 8 | 340 | 4.8 | 27.4 | 0.00 | 0.00 | 0.00 | 57 | 1015.1 |
| 20260510145330 | 8 | 235 | 11.3 | 27.4 | 0.00 | 0.00 | 0.00 | 57 | 1015.1 |
| 20260510144823 | 8 | 332 | 19.3 | 24.1 | 0.00 | 0.00 | 0.00 | 58 | 1015.1 |
| 20260510144323 | 7 | 348 | 6.4 | 16.1 | 0.00 | 0.00 | 0.00 | 58 | 1015.1 |
| 20260510143756 | 7 | 292 | 3.2 | 16.1 | 0.00 | 0.00 | 0.00 | 60 | 1014.7 |
| 20260510143254 | 7 | 351 | 8.0 | 12.9 | 0.00 | 0.00 | 0.00 | 60 | 1015.1 |
| 20260510142727 | 7 | 285 | 3.2 | 20.9 | 0.00 | 0.00 | 0.00 | 62 | 1014.7 |
| 20260510142223 | 8 | 262 | 8.0 | 20.9 | 0.00 | 0.00 | 0.00 | 59 | 1014.7 |
| 20260510141723 | 7 | 330 | 3.2 | 16.1 | 0.00 | 0.00 | 0.00 | 63 | 1014.7 |
| 20260510141216 | 7 | 333 | 11.3 | 16.1 | 0.00 | 0.00 | 0.00 | 62 | 1015.1 |
| 20260510140928 | 7 | 278 | 3.2 | 17.7 | 0.00 | 0.00 | 0.00 | 62 | 1014.7 |
| 20260510140155 | 7 | 260 | 6.4 | 17.7 | 0.00 | 0.00 | 0.00 | 61 | 1014.7 |
| 20260510135631 | 7 | 338 | 9.7 | 16.1 | 0.00 | 0.00 | 0.00 | 62 | 1014.7 |
| 20260510135356 | 7 | 317 | 12.9 | 16.1 | 0.00 | 0.00 | 0.00 | 60 | 1014.7 |
| 20260510134623 | 7 | 342 | 4.8 | 14.5 | 0.00 | 0.00 | 0.00 | 62 | 1015.1 |
| 20260510134114 | 7 | 243 | 4.8 | 14.5 | 0.00 | 0.00 | 0.00 | 63 | 1014.7 |
| 20260510133606 | 6 | 305 | 9.7 | 20.9 | 0.00 | 0.00 | 0.00 | 63 | 1014.7 |
| 20260510133056 | 6 | 308 | 11.3 | 24.1 | 0.00 | 0.00 | 0.00 | 64 | 1014.7 |
| 20260510132751 | 6 | 347 | 8.0 | 24.1 | 0.00 | 0.00 | 0.00 | 64 | 1015.1 |
| 20260510132004 | 6 | 349 | 9.7 | 16.1 | 0.00 | 0.00 | 0.00 | 66 | 1015.1 |
| 20260510131448 | 6 | 0 | 11.3 | 14.5 | 0.00 | 0.00 | 0.00 | 66 | 1015.1 |
| 20260510130929 | 6 | 322 | 9.7 | 11.3 | 0.00 | 0.00 | 0.00 | 67 | 1014.7 |
| 20260510130642 | 6 | 2 | 1.6 | 12.9 | 0.00 | 0.00 | 0.00 | 66 | 1014.7 |
| 20260510125916 | 6 | 9 | 6.4 | 16.1 | 0.00 | 0.00 | 0.00 | 67 | 1014.7 |
| 20260510125356 | 5 | 325 | 12.9 | 16.1 | 0.00 | 0.00 | 0.00 | 68 | 1014.7 |
| 20260510125111 | 5 | 318 | 6.4 | 14.5 | 0.00 | 0.00 | 0.00 | 71 | 1014.7 |
| 20260510124343 | 5 | 301 | 11.3 | 17.7 | 0.00 | 0.00 | 0.00 | 73 | 1014.7 |
| 20260510123831 | 5 | 318 | 11.3 | 17.7 | 0.00 | 0.00 | 0.00 | 73 | 1014.7 |
| 20260510123331 | 5 | 258 | 9.7 | 11.3 | 0.00 | 0.00 | 0.00 | 74 | 1014.4 |
| 20260510122824 | 5 | 352 | 9.7 | 14.5 | 0.00 | 0.00 | 0.00 | 75 | 1014.7 |
| 20260510122306 | 5 | 312 | 8.0 | 14.5 | 0.00 | 0.00 | 0.00 | 76 | 1014.4 |
| 20260510121737 | 5 | 280 | 6.4 | 14.5 | 0.00 | 0.00 | 0.00 | 77 | 1014.4 |
| 20260510121227 | 5 | 332 | 11.3 | 12.9 | 0.00 | 0.00 | 0.00 | 77 | 1014.4 |
| 20260510120656 | 4 | 336 | 6.4 | 11.3 | 0.00 | 0.00 | 0.00 | 78 | 1014.4 |
| 20260510120124 | 4 | 285 | 8.0 | 12.9 | 0.00 | 0.00 | 0.00 | 81 | 1014.1 |
| 20260510115555 | 4 | 324 | 3.2 | 12.9 | 0.00 | 0.00 | 0.00 | 82 | 1014.1 |
| 20260510115054 | 3 | 341 | 4.8 | 14.5 | 0.00 | 0.00 | 0.00 | 83 | 1014.1 |
| 20260510114526 | 3 | 335 | 3.2 | 14.5 | 0.00 | 0.00 | 0.00 | 84 | 1014.1 |
| 20260510114023 | 3 | 307 | 9.7 | 11.3 | 0.00 | 0.00 | 0.00 | 84 | 1013.7 |
| 20260510114012 | 3 | 3 | 6.4 | 11.3 | 0.00 | 0.00 | 0.00 | 85 | 1014.1 |
| 20260510113015 | 2 | 330 | 1.6 | 6.4 | 0.00 | 0.00 | 0.00 | 86 | 1013.7 |
| 20260510112502 | 2 | 357 | 3.2 | 6.4 | 0.00 | 0.00 | 0.00 | 87 | 1013.7 |
| 20260510111955 | 2 | 337 | 3.2 | 4.8 | 0.00 | 0.00 | 0.00 | 89 | 1013.4 |
| 20260510111431 | 1 | 306 | 1.6 | 3.2 | 0.00 | 0.00 | 0.00 | 90 | 1013.4 |
| 20260510110931 | 1 | 296 | 0.0 | 1.6 | 0.00 | 0.00 | 0.00 | 90 | 1013.4 |
| 20260510110423 | 1 | 288 | 1.6 | 1.6 | 0.00 | 0.00 | 0.00 | 91 | 1013.4 |
| 20260510105914 | 1 | 288 | 0.0 | 1.6 | 0.00 | 0.00 | 0.00 | 91 | 1013.4 |
| 20260510105408 | 1 | 289 | 0.0 | 3.2 | 0.00 | 0.00 | 0.00 | 91 | 1013.0 |
| 20260510105121 | 1 | 290 | 0.0 | 3.2 | 0.00 | 0.00 | 0.00 | 91 | 1013.0 |
| 20260510104323 | 0 | 291 | 1.6 | 3.2 | 0.00 | 0.00 | 0.00 | 91 | 1013.0 |
| 20260510103804 | 0 | 300 | 0.0 | 3.2 | 0.00 | 0.00 | 0.00 | 91 | 1013.0 |
| 20260510103248 | 0 | 297 | 0.0 | 3.2 | 0.00 | 0.00 | 0.00 | 91 | 1012.7 |
| 20260510102953 | 0 | 299 | 0.0 | 1.6 | 0.00 | 0.00 | 0.00 | 92 | 1012.4 |
| 20260510102221 | 0 | 300 | 0.0 | 1.6 | 0.00 | 0.00 | 0.00 | 91 | 1012.7 |
| 20260510101717 | 1 | 292 | 0.0 | 3.2 | 0.00 | 0.00 | 0.00 | 90 | 1012.7 |
| 20260510101157 | 1 | 295 | 0.0 | 3.2 | 0.00 | 0.00 | 0.00 | 89 | 1012.4 |
| 20260510100650 | 1 | 284 | 1.6 | 3.2 | 0.00 | 0.00 | 0.00 | 89 | 1012.4 |
| 20260510100143 | 1 | 277 | 3.2 | 3.2 | 0.00 | 0.00 | 0.00 | 89 | 1012.4 |
| 20260510095848 | 1 | 293 | 1.6 | 3.2 | 0.00 | 0.00 | 0.00 | 89 | 1012.4 |
| 20260510095129 | 1 | 286 | 1.6 | 3.2 | 0.00 | 0.00 | 0.00 | 88 | 1012.4 |
| 20260510094624 | 1 | 280 | 1.6 | 3.2 | 0.00 | 0.00 | 0.00 | 88 | 1012.4 |
| 20260510094102 | 1 | 294 | 1.6 | 3.2 | 0.00 | 0.00 | 0.00 | 87 | 1012.0 |
| 20260510093757 | 1 | 269 | 1.6 | 3.2 | 0.00 | 0.00 | 0.00 | 87 | 1012.0 |
| 20260510093025 | 1 | 293 | 0.0 | 1.6 | 0.00 | 0.00 | 0.00 | 87 | 1012.0 |
| 20260510092455 | 1 | 285 | 0.0 | 1.6 | 0.00 | 0.00 | 0.00 | 86 | 1011.3 |
| 20260510091923 | 1 | 290 | 0.0 | 4.8 | 0.00 | 0.00 | 0.00 | 86 | 1012.0 |
| 20260510091404 | 1 | 246 | 3.2 | 4.8 | 0.00 | 0.00 | 0.00 | 86 | 1012.0 |
| 20260510090837 | 1 | 300 | 3.2 | 3.2 | 0.00 | 0.00 | 0.00 | 86 | 1012.0 |
| 20260510090806 | 1 | 248 | 0.0 | 4.8 | 0.00 | 0.00 | 0.00 | 86 | 1012.0 |
| 20260510085823 | 1 | 276 | 1.6 | 4.8 | 0.00 | 0.00 | 0.00 | 86 | 1011.7 |
| 20260510085538 | 1 | 274 | 1.6 | 4.8 | 0.00 | 0.00 | 0.00 | 86 | 1011.7 |
| 20260510084816 | 1 | 301 | 1.6 | 4.8 | 0.00 | 0.00 | 0.00 | 87 | 1011.3 |
| 20260510084302 | 0 | 279 | 0.0 | 1.6 | 0.00 | 0.00 | 0.00 | 87 | 1011.3 |
| 20260510083755 | 0 | 297 | 1.6 | 1.6 | 0.00 | 0.00 | 0.00 | 87 | 1011.3 |
| 20260510083459 | 0 | 282 | 0.0 | 1.6 | 0.00 | 0.00 | 0.00 | 88 | 1011.3 |
| 20260510082730 | 1 | 281 | 0.0 | 1.6 | 0.00 | 0.00 | 0.00 | 87 | 1011.3 |
| 20260510082223 | 1 | 280 | 0.0 | 3.2 | 0.00 | 0.00 | 0.00 | 87 | 1011.0 |
| 20260510081718 | 1 | 281 | 0.0 | 3.2 | 0.00 | 0.00 | 0.00 | 87 | 1011.0 |
| 20260510081426 | 1 | 276 | 1.6 | 3.2 | 0.00 | 0.00 | 0.00 | 87 | 1011.0 |
| 20260510080655 | 1 | 282 | 1.6 | 3.2 | 0.00 | 0.00 | 0.00 | 87 | 1011.0 |
| 20260510080124 | 1 | 275 | 3.2 | 3.2 | 0.00 | 0.00 | 0.00 | 87 | 1011.0 |
| 20260510075603 | 0 | 253 | 1.6 | 3.2 | 0.00 | 0.00 | 0.00 | 88 | 1011.0 |
| 20260510075048 | 0 | 296 | 0.0 | 1.6 | 0.00 | 0.00 | 0.00 | 88 | 1011.0 |
| 20260510074532 | 0 | 298 | 0.0 | 1.6 | 0.00 | 0.00 | 0.00 | 88 | 1010.6 |
| 20260510074020 | 0 | 297 | 0.0 | 0.0 | 0.00 | 0.00 | 0.00 | 88 | 1010.6 |
| 20260510073517 | 0 | 306 | 0.0 | 1.6 | 0.00 | 0.00 | 0.00 | 87 | 1011.0 |
| 20260510072957 | 0 | 305 | 0.0 | 1.6 | 0.00 | 0.00 | 0.00 | 87 | 1010.2 |
| 20260510072450 | 1 | 297 | 1.6 | 1.6 | 0.00 | 0.00 | 0.00 | 86 | 1010.2 |
| 20260510071943 | 1 | 286 | 0.0 | 1.6 | 0.00 | 0.00 | 0.00 | 86 | 1010.6 |
| 20260510071431 | 1 | 297 | 0.0 | 3.2 | 0.00 | 0.00 | 0.00 | 85 | 1010.6 |
| 20260510070931 | 1 | 291 | 1.6 | 1.6 | 0.00 | 0.00 | 0.00 | 86 | 1010.2 |
| 20260510070424 | 1 | 295 | 0.0 | 1.6 | 0.00 | 0.00 | 0.00 | 86 | 1010.2 |
| 20260510065913 | 1 | 295 | 0.0 | 1.6 | 0.00 | 0.00 | 0.00 | 86 | 1010.2 |
| 20260510065355 | 1 | 295 | 0.0 | 1.6 | 0.00 | 0.00 | 0.00 | 84 | 1010.2 |
| 20260510064823 | 2 | 295 | 0.0 | 1.6 | 0.00 | 0.00 | 0.00 | 82 | 1010.2 |
| 20260510064315 | 2 | 296 | 0.0 | 1.6 | 0.00 | 0.00 | 0.00 | 81 | 1010.2 |
| 20260510063803 | 2 | 300 | 0.0 | 1.6 | 0.00 | 0.00 | 0.00 | 81 | 1010.2 |
| 20260510063255 | 2 | 318 | 0.0 | 3.2 | 0.00 | 0.00 | 0.00 | 80 | 1009.9 |
| 20260510062955 | 3 | 325 | 3.2 | 11.3 | 0.00 | 0.00 | 0.00 | 78 | 1009.9 |
| 20260510062221 | 3 | 300 | 3.2 | 11.3 | 0.00 | 0.00 | 0.00 | 78 | 1009.9 |
| 20260510061716 | 3 | 323 | 3.2 | 6.4 | 0.00 | 0.00 | 0.00 | 77 | 1009.6 |
| 20260510061156 | 3 | 321 | 4.8 | 11.3 | 0.00 | 0.00 | 0.00 | 77 | 1009.9 |
| 20260510060628 | 3 | 317 | 6.4 | 11.3 | 0.00 | 0.00 | 0.00 | 76 | 1009.9 |
| 20260510060123 | 3 | 312 | 3.2 | 11.3 | 0.00 | 0.00 | 0.00 | 76 | 1009.9 |
| 20260510055555 | 3 | 291 | 6.4 | 9.7 | 0.00 | 0.00 | 0.00 | 75 | 1009.6 |
| 20260510055030 | 3 | 351 | 1.6 | 9.7 | 0.00 | 0.00 | 0.00 | 76 | 1009.9 |
| 20260510054529 | 3 | 286 | 3.2 | 9.7 | 0.00 | 0.00 | 0.00 | 75 | 1009.9 |
| 20260510054024 | 3 | 336 | 4.8 | 9.7 | 0.00 | 0.00 | 0.00 | 74 | 1009.9 |
| 20260510053513 | 3 | 322 | 3.2 | 11.3 | 0.00 | 0.00 | 0.00 | 73 | 1009.9 |
| 20260510053006 | 3 | 357 | 3.2 | 11.3 | 0.00 | 0.00 | 0.00 | 73 | 1009.6 |
| 20260510052456 | 3 | 332 | 4.8 | 14.5 | 0.00 | 0.00 | 0.00 | 72 | 1009.6 |
| 20260510051923 | 3 | 349 | 3.2 | 14.5 | 0.00 | 0.00 | 0.00 | 70 | 1009.6 |
| 20260510051402 | 4 | 306 | 3.2 | 14.5 | 0.00 | 0.00 | 0.00 | 70 | 1009.6 |
| 20260510050851 | 4 | 323 | 3.2 | 22.5 | 0.00 | 0.00 | 0.00 | 70 | 1009.6 |
| 20260510050340 | 4 | 314 | 9.7 | 22.5 | 0.00 | 0.00 | 0.00 | 69 | 1009.6 |
| 20260510045832 | 4 | 293 | 3.2 | 17.7 | 0.00 | 0.00 | 0.00 | 70 | 1009.2 |
| 20260510045552 | 4 | 319 | 12.9 | 16.1 | 0.00 | 0.00 | 0.00 | 69 | 1009.2 |
| 20260510044757 | 4 | 296 | 8.0 | 14.5 | 0.00 | 0.00 | 0.00 | 69 | 1008.9 |
| 20260510044230 | 4 | 0 | 6.4 | 11.3 | 0.00 | 0.00 | 0.00 | 68 | 1009.2 |
| 20260510043724 | 4 | 325 | 3.2 | 14.5 | 0.00 | 0.00 | 0.00 | 68 | 1009.2 |
| 20260510043431 | 4 | 332 | 8.0 | 14.5 | 0.00 | 0.00 | 0.00 | 68 | 1008.9 |
| 20260510042702 | 4 | 333 | 3.2 | 16.1 | 0.00 | 0.00 | 0.00 | 70 | 1008.9 |
| 20260510042141 | 4 | 342 | 6.4 | 12.9 | 0.00 | 0.00 | 0.00 | 70 | 1008.9 |
| 20260510041624 | 4 | 321 | 9.7 | 14.5 | 0.00 | 0.00 | 0.00 | 70 | 1008.9 |
| 20260510041319 | 5 | 277 | 9.7 | 14.5 | 0.00 | 0.00 | 0.00 | 69 | 1009.2 |
| 20260510040749 | 4 | 289 | 4.8 | 14.5 | 0.00 | 0.00 | 0.00 | 70 | 1009.2 |
| 20260510040022 | 4 | 311 | 3.2 | 4.8 | 0.00 | 0.00 | 0.00 | 71 | 1008.9 |
| 20260510035510 | 4 | 317 | 1.6 | 11.3 | 0.00 | 0.00 | 0.00 | 70 | 1008.9 |
| 20260510035003 | 5 | 332 | 4.8 | 11.3 | 0.00 | 0.00 | 0.00 | 69 | 1008.9 |
| 20260510034457 | 5 | 274 | 4.8 | 12.9 | 0.00 | 0.00 | 0.00 | 68 | 1008.9 |
| 20260510034206 | 5 | 336 | 6.4 | 14.5 | 0.00 | 0.00 | 0.00 | 68 | 1008.5 |
| 20260510033433 | 5 | 359 | 6.4 | 14.5 | 0.00 | 0.00 | 0.00 | 67 | 1008.5 |
| 20260510032923 | 5 | 307 | 4.8 | 12.9 | 0.00 | 0.00 | 0.00 | 69 | 1008.5 |
| 20260510032355 | 5 | 323 | 8.0 | 11.3 | 0.00 | 0.00 | 0.00 | 70 | 1008.5 |
| 20260510032041 | 5 | 332 | 6.4 | 14.5 | 0.00 | 0.00 | 0.00 | 71 | 1008.2 |
| 20260510031315 | 5 | 324 | 3.2 | 14.5 | 0.00 | 0.00 | 0.00 | 70 | 1008.5 |
| 20260510030809 | 5 | 296 | 4.8 | 12.9 | 0.00 | 0.00 | 0.00 | 71 | 1008.5 |
| 20260510030259 | 5 | 348 | 3.2 | 12.9 | 0.00 | 0.00 | 0.00 | 71 | 1008.5 |
| 20260510030001 | 5 | 326 | 6.4 | 14.5 | 0.00 | 0.00 | 0.00 | 71 | 1008.5 |
| 20260510025208 | 5 | 312 | 8.0 | 14.5 | 0.00 | 0.00 | 0.00 | 70 | 1008.5 |
| 20260510024643 | 5 | 314 | 4.8 | 14.5 | 0.00 | 0.00 | 0.00 | 69 | 1008.2 |
| 20260510024345 | 5 | 301 | 9.7 | 12.9 | 0.00 | 0.00 | 0.00 | 70 | 1008.5 |
| 20260510023558 | 6 | 267 | 3.2 | 9.7 | 0.00 | 0.00 | 0.00 | 70 | 1008.5 |
| 20260510023050 | 6 | 338 | 6.4 | 11.3 | 0.00 | 0.00 | 0.00 | 69 | 1008.2 |
| 20260510022522 | 6 | 326 | 4.8 | 14.5 | 0.00 | 0.00 | 0.00 | 68 | 1008.2 |
| 20260510022009 | 6 | 332 | 6.4 | 14.5 | 0.00 | 0.00 | 0.00 | 69 | 1008.2 |
| 20260510021503 | 6 | 343 | 9.7 | 14.5 | 0.00 | 0.00 | 0.00 | 68 | 1008.2 |
| 20260510020939 | 6 | 333 | 9.7 | 14.5 | 0.00 | 0.00 | 0.00 | 67 | 1008.2 |
| 20260510020430 | 6 | 313 | 12.9 | 17.7 | 0.00 | 0.00 | 0.00 | 66 | 1007.9 |
| 20260510015902 | 6 | 296 | 4.8 | 17.7 | 0.00 | 0.00 | 0.00 | 66 | 1007.9 |
| 20260510015356 | 6 | 353 | 12.9 | 17.7 | 0.00 | 0.00 | 0.00 | 65 | 1007.9 |
| 20260510014855 | 6 | 299 | 14.5 | 17.7 | 0.00 | 0.00 | 0.00 | 65 | 1007.9 |
| 20260510014605 | 6 | 301 | 8.0 | 14.5 | 0.00 | 0.00 | 0.00 | 66 | 1007.5 |
| 20260510013824 | 7 | 4 | 4.8 | 14.5 | 0.00 | 0.00 | 0.00 | 67 | 1007.2 |
| 20260510013305 | 7 | 30 | 6.4 | 16.1 | 0.00 | 0.00 | 0.00 | 66 | 1007.2 |
| 20260510012801 | 7 | 340 | 11.3 | 17.7 | 0.00 | 0.00 | 0.00 | 65 | 1007.2 |
| 20260510012232 | 7 | 330 | 11.3 | 17.7 | 0.00 | 0.00 | 0.00 | 65 | 1006.8 |
| 20260510011727 | 7 | 332 | 4.8 | 14.5 | 0.00 | 0.00 | 0.00 | 65 | 1006.8 |
| 20260510011204 | 7 | 314 | 9.7 | 17.7 | 0.00 | 0.00 | 0.00 | 65 | 1006.8 |
| 20260510010852 | 7 | 314 | 8.0 | 14.5 | 0.00 | 0.00 | 0.00 | 66 | 1006.5 |
| 20260510010123 | 7 | 350 | 4.8 | 12.9 | 0.00 | 0.00 | 0.00 | 67 | 1006.5 |
| 20260510005610 | 7 | 354 | 6.4 | 20.9 | 0.00 | 0.00 | 0.00 | 67 | 1006.5 |
| 20260510005102 | 7 | 339 | 12.9 | 20.9 | 0.00 | 0.00 | 0.00 | 66 | 1006.2 |
| 20260510004539 | 8 | 317 | 4.8 | 17.7 | 0.00 | 0.00 | 0.00 | 66 | 1006.2 |
| 20260510004024 | 8 | 340 | 9.7 | 20.9 | 0.00 | 0.00 | 0.00 | 65 | 1006.5 |
| 20260510003453 | 8 | 322 | 16.1 | 17.7 | 0.00 | 0.00 | 0.00 | 64 | 1005.8 |
| 20260510003150 | 8 | 297 | 4.8 | 12.9 | 0.00 | 0.00 | 0.00 | 65 | 1006.2 |
| 20260510002402 | 8 | 295 | 9.7 | 17.7 | 0.00 | 0.00 | 0.00 | 63 | 1005.5 |
| 20260510001849 | 8 | 300 | 3.2 | 29.0 | 0.00 | 0.00 | 0.00 | 63 | 1005.8 |
| 20260510001806 | 8 | 319 | 11.3 | 29.0 | 0.00 | 0.00 | 0.00 | 61 | 1005.1 |
| 20260510000821 | 9 | 315 | 12.9 | 22.5 | 0.00 | 0.00 | 0.00 | 61 | 1005.5 |
| 20260510000304 | 9 | 356 | 6.4 | 22.5 | 0.00 | 0.00 | 0.00 | 62 | 1005.1 |
| 20260509235739 | 9 | 340 | 4.8 | 20.9 | 0.00 | 0.00 | 0.00 | 62 | 1005.1 |
| 20260509235500 | 9 | 309 | 16.1 | 20.9 | 0.00 | 0.00 | 0.00 | 60 | 1004.7 |
| 20260509234703 | 10 | 8 | 16.1 | 30.6 | 0.00 | 0.00 | 0.00 | 58 | 1004.4 |
| 20260509234157 | 10 | 341 | 17.7 | 30.6 | 0.00 | 0.00 | 0.00 | 54 | 1004.4 |
| 20260509233656 | 10 | 282 | 14.5 | 29.0 | 0.00 | 0.00 | 0.00 | 50 | 1004.4 |
| 20260509233150 | 11 | 353 | 9.7 | 24.1 | 0.00 | 0.00 | 0.00 | 48 | 1004.0 |
| 20260509232624 | 11 | 298 | 8.0 | 24.1 | 0.00 | 0.00 | 0.00 | 48 | 1004.0 |
| 20260509232056 | 11 | 20 | 14.5 | 24.1 | 0.00 | 0.00 | 0.00 | 47 | 1004.0 |
| 20260509231550 | 11 | 306 | 9.7 | 30.6 | 0.00 | 0.00 | 0.00 | 48 | 1004.0 |
| 20260509231305 | 11 | 319 | 9.7 | 30.6 | 0.00 | 0.00 | 0.00 | 47 | 1004.0 |
| 20260509230743 | 11 | 281 | 11.3 | 30.6 | 0.00 | 0.00 | 0.00 | 47 | 1004.0 |